Temp
48 44 39 44 50 49 49 47 46 47 51 49 47 48 52 50 48 51 50 50 53 55 57 57 59 60 60 61 64 64 64 63 62 60 60 63 63 64 64 64 65 66 65 64
45 39 49 53 52 52 48 46 45 46 48 48 44 48 47 50 50 52 52 50 52 51 54 55 54 55 57 60 62 63 64 63 63 64 61 61 61 64 65 64 64 65 65 64
43 47 53 51 49 48 46 48 44 45 44 43 42 43 45 50 49 51 52 51 52 53 53 53 53 53 53 55 57 61 63 63 64 63 62 62 63 63 63 63 63 64 64 63
45 52 51 47 48 50 43 48 47 44 43 37 42 33 40 46 49 49 52 50 52 50 52 51 51 51 51 53 53 55 59 61 63 63 65 63 62 60 62 63 59 56 58 58
39 45 44 45 48 51 46 49 48 44 41 38 34 34 39 39 44 46 50 51 50 50 51 50 50 50 49 51 51 52 55 60 61 64 65 64 61 61 59 58 55 54 54 54
43 47 49 48 49 52 50 48 45 42 40 32 39 37 37 38 45 51 48 50 50 49 48 48 48 48 48 47 48 50 52 59 60 63 64 63 60 58 56 54 52 51 51 50
36 39 44 50 46 48 49 45 32 32 29 32 32 33 46 44 47 49 54 53 49 45 45 45 46 45 46 46 46 48 50 55 60 60 59 61 59 57 54 52 50 49 47 43
31 29 39 48 47 41 40 45 32 26 27 28 33 31 40 46 45 48 50 51 46 44 45 45 45 45 45 45 45 46 47 49 53 55 54 55 53 51 47 49 45 43 43 41
32 34 44 47 49 51 42 39 44 33 20 28 32 36 45 44 44 45 46 44 47 46 45 44 44 43 43 43 43 43 43 45 48 51 51 50 49 46 44 42 42 42 40 41
41 34 42 44 49 47 45 48 38 35 24 21 28 29 36 40 47 45 42 43 45 45 43 43 43 42 42 42 42 42 43 43 43 47 49 48 46 44 42 41 40 39 38 38
42 40 36 43 41 39 41 39 40 43 34 29 23 32 41 49 51 49 49 46 44 43 43 42 42 41 41 41 41 40 41 41 42 44 45 45 43 40 40 39 37 37 37 37
43 37 29 37 40 44 48 44 44 37 31 30 30 33 43 44 45 47 43 43 42 42 42 41 41 41 40 40 40 39 39 40 39 40 41 40 40 39 38 37 36 37 36 36
44 36 26 32 38 40 40 43 44 40 35 33 30 38 45 43 44 44 43 42 42 41 40 39 38 38 37 37 38 38 38 38 38 40 39 38 37 37 35 34 35 35 35 34
48 38 36 33 37 39 35 38 40 44 32 35 34 38 46 46 45 42 43 44 43 41 41 40 39 37 38 39 39 38 37 39 38 38 38 36 35 35 35 34 34 34 33 32
46 34 36 37 39 43 42 44 41 41 45 39 45 39 47 50 48 44 44 42 41 40 41 41 40 39 40 38 38 39 39 38 38 37 36 34 34 33 33 33 32 31 31 31
41 27 35 29 36 39 36 41 43 44 46 45 40 39 48 48 45 44 45 43 42 43 43 43 42 42 41 41 40 40 39 37 37 36 35 34 33 32 31 31 31 31 29 29
41 31 26 21 29 33 31 37 40 43 45 47 39 48 46 45 46 46 44 45 45 46 45 44 43 43 43 43 43 41 39 37 35 34 33 32 32 31 31 30 29 29 28 28
39 35 29 22 24 23 37 42 46 44 47 48 48 44 45 50 50 49 48 47 47 48 48 47 46 46 46 45 43 42 38 36 34 33 32 31 31 30 28 28 27 27 26 26
38 41 32 28 14 30 38 39 38 37 41 45 45 50 45 46 45 48 49 51 51 51 51 50 50 49 47 44 43 39 35 35 34 33 32 31 30 27 26 24 24 25 24 23
37 43 37 30 26 20 33 43 44 47 36 47 45 45 44 45 41 51 51 50 51 52 52 50 48 47 45 43 41 37 36 34 33 33 32 30 28 25 23 25 23 23 21 24
26 28 32 31 26 26 35 37 46 35 40 39 44 47 43 45 54 50 48 48 49 48 45 44 46 45 44 42 38 36 35 33 35 31 28 26 25 24 24 23 22 20 20 21
29 26 28 25 28 26 36 36 41 43 39 39 41 42 42 43 42 42 42 41 41 41 40 43 44 43 42 38 38 36 34 36 29 28 26 24 23 24 22 19 19 19 19 19
29 33 30 35 34 37 34 36 38 40 40 37 39 38 37 38 38 40 40 38 36 36 37 38 41 36 36 36 39 36 36 29 28 26 23 20 20 21 21 20 18 18 17 17
30 33 30 33 32 33 34 34 35 37 37 36 37 37 36 36 37 37 36 35 34 30 30 29 32 33 32 34 37 38 29 29 26 23 20 19 21 20 19 21 20 18 16 15
31 33 29 29 32 33 33 34 36 36 36 36 37 36 36 35 35 34 33 29 30 28 26 27 30 30 29 29 29 27 27 27 25 22 21 20 21 19 19 19 19 18 17 17
33 32 30 28 34 35 35 35 36 35 36 36 35 35 34 34 35 32 28 28 27 26 24 26 25 27 25 24 24 24 26 27 24 22 21 20 19 19 18 17 15 23 24 25
MSLP
1018.41 1018.79 1017.81 1017.80 1018.18 1018.00 1018.23 1018.14 1017.20 1017.37 1016.89 1017.19 1017.49 1017.65 1017.69 1018.17 1018.67 1019.07 1019.38 1019.61 1019.76 1019.53 1019.29 1019.52 1019.66 1019.91 1020.28 1020.68 1020.88 1021.19 1021.51 1021.78 1022.34 1022.93 1023.42 1023.57 1023.66 1024.02 1024.11 1024.23 1024.38 1024.57 1024.85 1025.03
1018.38 1017.14 1017.37 1017.70 1017.74 1017.76 1017.82 1017.70 1017.49 1017.31 1017.41 1017.57 1017.87 1017.76 1017.63 1018.15 1018.23 1018.31 1018.69 1019.15 1019.22 1019.48 1019.53 1019.57 1019.85 1019.77 1019.78 1020.14 1020.41 1020.95 1021.17 1021.51 1021.85 1022.36 1022.78 1023.17 1023.49 1023.68 1023.85 1024.02 1024.22 1024.31 1024.47 1024.66
1016.76 1016.54 1016.92 1017.17 1017.58 1017.33 1017.23 1017.17 1017.09 1016.96 1017.88 1018.05 1018.41 1018.43 1017.67 1017.71 1018.04 1018.00 1018.37 1018.56 1018.93 1018.94 1019.32 1019.70 1019.85 1020.07 1019.90 1020.18 1020.31 1020.44 1020.75 1021.13 1021.53 1021.91 1022.49 1022.95 1023.41 1023.56 1023.87 1024.11 1024.28 1024.35 1024.45 1024.67
1017.41 1016.82 1016.48 1016.78 1016.88 1016.86 1017.20 1017.03 1017.16 1017.62 1018.18 1018.63 1018.60 1018.46 1017.76 1017.57 1017.85 1017.78 1017.92 1018.42 1018.41 1018.73 1019.05 1019.45 1019.76 1020.05 1020.01 1020.21 1020.48 1020.39 1020.70 1020.99 1021.31 1021.49 1022.25 1022.54 1023.00 1023.56 1023.93 1024.27 1024.97 1025.27 1025.25 1025.31
1017.59 1017.14 1016.76 1016.42 1015.81 1016.57 1016.82 1016.92 1017.65 1018.41 1018.84 1019.08 1019.40 1019.36 1017.56 1017.63 1017.81 1017.63 1017.57 1017.69 1018.05 1018.29 1018.63 1019.25 1019.70 1020.17 1020.06 1020.19 1020.56 1020.61 1020.64 1020.84 1021.07 1021.34 1021.67 1022.19 1023.08 1023.31 1024.27 1024.79 1025.29 1025.87 1026.05 1026.07
1018.04 1017.76 1016.79 1016.32 1016.13 1016.12 1016.76 1017.58 1018.50 1019.38 1019.86 1019.89 1018.82 1018.92 1017.46 1017.25 1016.77 1016.62 1016.86 1017.07 1017.66 1018.36 1018.75 1019.32 1019.89 1020.58 1020.40 1020.30 1020.58 1020.82 1020.89 1020.80 1020.81 1020.97 1021.24 1021.84 1022.74 1023.64 1024.63 1025.39 1025.91 1026.42 1026.56 1026.76
1018.58 1018.11 1017.02 1016.09 1016.16 1016.53 1016.78 1017.89 1019.12 1020.25 1020.66 1019.17 1019.02 1019.16 1016.69 1015.66 1015.56 1015.62 1015.80 1016.24 1017.14 1018.30 1019.00 1019.33 1019.82 1020.65 1020.88 1020.57 1020.49 1020.75 1020.99 1020.96 1020.77 1020.88 1021.05 1021.67 1022.42 1023.34 1024.14 1025.51 1026.37 1026.91 1027.25 1027.49
1017.35 1018.06 1016.57 1015.56 1015.23 1015.75 1016.36 1016.95 1017.48 1018.40 1019.94 1019.66 1019.51 1018.34 1015.78 1014.99 1015.12 1015.51 1015.95 1016.19 1017.23 1018.24 1018.85 1019.33 1019.68 1020.21 1020.72 1021.01 1020.96 1020.78 1020.99 1021.24 1021.26 1021.19 1021.47 1021.97 1022.44 1023.58 1024.50 1025.62 1026.53 1027.07 1027.64 1027.96
1015.37 1015.61 1015.10 1015.30 1015.88 1015.54 1016.43 1016.75 1017.08 1018.49 1020.21 1019.99 1018.73 1017.39 1015.73 1014.80 1014.98 1015.71 1016.13 1016.48 1017.11 1017.71 1018.44 1019.18 1019.72 1020.21 1020.71 1021.01 1021.33 1021.41 1021.23 1021.37 1021.57 1021.73 1021.91 1022.67 1023.16 1023.80 1024.97 1025.95 1026.72 1027.24 1027.87 1028.14
1013.08 1014.85 1015.07 1015.63 1015.26 1015.87 1016.10 1016.69 1017.29 1017.75 1018.91 1019.35 1018.30 1017.05 1015.41 1014.96 1014.90 1015.38 1016.07 1016.12 1016.86 1017.73 1018.54 1019.39 1019.77 1020.38 1020.80 1021.06 1021.54 1021.74 1021.90 1021.76 1022.23 1022.44 1022.73 1022.93 1023.71 1024.67 1025.49 1026.43 1026.87 1027.53 1028.17 1028.31
1012.71 1013.02 1015.49 1015.87 1015.32 1015.59 1016.69 1016.26 1016.35 1016.60 1017.51 1017.77 1017.64 1015.87 1014.16 1014.04 1013.88 1014.12 1014.16 1015.08 1016.31 1017.33 1018.26 1019.32 1020.15 1020.68 1020.98 1021.29 1021.70 1022.11 1022.30 1022.31 1022.81 1023.18 1023.55 1023.48 1024.58 1025.43 1025.97 1026.65 1027.51 1027.90 1028.36 1028.59
1012.35 1013.13 1015.11 1015.46 1015.23 1015.17 1015.65 1015.46 1015.28 1015.89 1016.88 1017.10 1016.53 1014.44 1013.25 1013.41 1013.74 1014.06 1014.74 1015.73 1016.77 1017.61 1018.42 1019.16 1020.08 1020.72 1021.22 1021.73 1021.98 1022.22 1022.58 1022.81 1023.07 1023.62 1023.85 1024.38 1025.01 1025.75 1026.42 1027.15 1027.88 1028.18 1028.65 1028.88
1011.57 1012.80 1015.01 1015.89 1016.18 1015.51 1014.93 1014.78 1014.68 1015.10 1015.60 1015.55 1015.83 1013.40 1012.99 1013.13 1013.45 1014.03 1014.67 1015.40 1016.72 1017.69 1018.51 1019.28 1020.12 1020.65 1020.93 1021.69 1021.95 1022.28 1022.69 1022.95 1023.31 1023.96 1024.41 1025.07 1025.50 1025.92 1026.64 1027.37 1028.01 1028.33 1028.68 1029.06
1011.06 1012.54 1013.21 1013.33 1012.79 1013.93 1014.66 1014.33 1014.16 1014.58 1015.30 1014.72 1013.89 1013.31 1013.10 1013.08 1013.43 1014.05 1014.66 1015.49 1016.41 1017.25 1018.02 1018.82 1019.73 1020.38 1020.98 1021.55 1021.91 1022.44 1022.91 1023.06 1023.63 1024.41 1024.95 1025.74 1026.18 1026.42 1027.14 1027.79 1028.31 1028.66 1028.94 1029.10
1011.16 1012.53 1013.35 1013.49 1013.01 1012.86 1013.04 1013.23 1013.52 1013.89 1013.84 1014.09 1012.35 1012.96 1012.79 1012.33 1012.77 1013.66 1014.55 1015.57 1016.28 1017.08 1017.59 1018.26 1019.23 1019.92 1020.58 1021.27 1021.79 1022.56 1023.15 1023.41 1023.91 1024.61 1025.13 1025.91 1026.33 1026.82 1027.42 1027.99 1028.57 1029.06 1029.35 1029.55
1011.57 1012.81 1013.52 1014.46 1013.93 1013.49 1013.48 1012.85 1012.79 1012.82 1012.28 1012.21 1011.77 1011.59 1011.69 1011.73 1012.43 1013.41 1013.97 1014.93 1015.63 1016.23 1016.54 1017.40 1018.32 1019.17 1019.83 1020.41 1021.06 1021.80 1022.81 1023.47 1023.85 1024.53 1025.23 1025.86 1026.35 1026.94 1027.55 1028.32 1028.99 1029.43 1029.73 1029.78
1011.77 1013.08 1014.40 1015.53 1014.94 1014.26 1013.97 1011.51 1011.60 1011.53 1011.27 1010.69 1011.22 1010.48 1011.21 1011.77 1012.02 1012.15 1013.16 1013.83 1014.08 1014.47 1015.13 1015.99 1016.76 1017.66 1018.56 1019.42 1020.25 1021.13 1022.28 1023.21 1023.98 1024.54 1025.28 1025.96 1026.68 1027.09 1027.52 1028.38 1029.06 1029.54 1029.83 1029.89
1011.73 1013.11 1014.60 1015.93 1015.65 1014.73 1011.44 1010.55 1010.28 1010.31 1010.03 1010.06 1010.11 1010.37 1010.55 1010.59 1010.73 1011.19 1011.83 1012.37 1012.59 1013.06 1014.02 1014.90 1015.57 1016.25 1017.30 1018.78 1019.63 1020.67 1021.79 1022.75 1023.54 1024.31 1025.11 1025.79 1026.63 1027.10 1027.62 1028.28 1028.90 1029.46 1029.74 1029.96
1011.61 1012.36 1014.59 1015.81 1015.83 1013.31 1011.13 1011.15 1010.93 1010.73 1009.91 1009.63 1009.63 1009.93 1010.31 1010.53 1010.91 1010.91 1010.81 1010.81 1010.87 1011.53 1012.13 1012.58 1013.55 1015.06 1016.56 1017.71 1018.77 1020.12 1021.47 1022.42 1023.27 1024.10 1024.80 1025.44 1026.21 1026.98 1027.61 1028.28 1028.78 1029.19 1029.61 1029.97
1012.24 1012.10 1013.77 1015.21 1015.01 1013.40 1010.74 1010.15 1010.20 1010.33 1008.72 1008.53 1009.20 1009.64 1010.07 1010.61 1011.08 1009.47 1009.59 1009.90 1009.97 1010.32 1011.08 1011.90 1012.95 1014.33 1015.72 1016.79 1018.04 1019.47 1020.69 1021.75 1022.71 1023.48 1024.30 1025.23 1026.06 1026.83 1027.68 1028.16 1028.76 1029.17 1029.61 1029.85
1013.55 1013.60 1013.76 1014.34 1014.41 1012.54 1010.79 1009.94 1010.07 1010.68 1006.92 1007.95 1008.41 1008.83 1009.52 1010.03 1009.07 1008.87 1008.96 1009.38 1009.64 1010.10 1010.75 1011.68 1012.55 1013.20 1014.30 1016.09 1017.45 1018.75 1019.84 1020.61 1021.57 1023.05 1024.26 1025.28 1026.01 1026.85 1027.52 1028.22 1028.76 1029.20 1029.59 1029.91
1012.68 1013.36 1013.69 1013.96 1013.68 1011.93 1010.05 1010.46 1009.89 1009.07 1008.72 1008.90 1008.92 1009.41 1009.95 1009.85 1009.96 1009.91 1010.20 1010.56 1010.74 1010.86 1011.07 1011.61 1012.58 1013.31 1014.30 1015.57 1016.69 1017.87 1018.68 1019.75 1021.38 1022.77 1024.18 1025.26 1026.13 1026.97 1027.65 1028.31 1028.98 1029.29 1029.61 1030.05
1011.90 1010.89 1011.46 1011.67 1010.49 1010.06 1009.85 1009.67 1009.56 1009.48 1009.62 1009.97 1010.03 1010.33 1010.46 1010.63 1010.72 1010.72 1010.97 1011.08 1011.28 1011.81 1012.12 1012.38 1012.84 1013.69 1014.63 1015.49 1016.06 1017.10 1018.29 1019.76 1021.15 1022.75 1024.10 1025.19 1026.24 1026.90 1027.69 1028.37 1028.86 1029.30 1029.57 1029.68
1011.53 1011.10 1010.97 1011.10 1010.42 1010.25 1010.15 1010.26 1010.11 1010.22 1010.30 1010.57 1010.75 1010.96 1011.15 1011.31 1011.61 1011.65 1011.86 1012.18 1012.40 1012.87 1013.27 1013.54 1013.91 1014.56 1015.18 1015.74 1016.33 1017.09 1018.40 1019.40 1020.86 1022.47 1023.99 1025.21 1025.90 1026.91 1027.72 1028.03 1028.37 1028.58 1029.07 1029.35
1011.69 1011.28 1011.02 1010.99 1010.87 1010.84 1010.76 1010.82 1010.84 1011.00 1011.08 1011.17 1011.32 1011.60 1011.92 1012.21 1012.28 1012.54 1012.87 1013.40 1013.90 1013.87 1014.01 1014.36 1014.90 1015.41 1015.82 1016.13 1016.79 1017.54 1018.43 1019.30 1020.80 1022.44 1023.84 1024.85 1025.69 1026.52 1027.29 1027.55 1027.85 1028.27 1028.36 1028.53
1011.71 1011.45 1011.08 1010.65 1010.77 1010.61 1010.97 1011.04 1011.16 1011.51 1011.58 1011.86 1012.14 1012.33 1012.43 1012.79 1013.08 1013.21 1013.57 1013.86 1014.47 1014.71 1014.89 1015.12 1015.46 1015.90 1016.39 1016.89 1017.51 1018.11 1018.72 1019.28 1020.47 1022.22 1023.56 1024.38 1025.19 1026.00 1026.68 1027.23 1027.89 1027.83 1027.73 1027.68
Wind_Speed
8 8 18 17 13 2 13 5 6 3 3 5 8 8 7 5 3 7 8 8 8 11 6 4 6 7 7 7 11 13 12 9 7 3 4 3 3 3 3 4 5 5 4 5
8 18 13 8 7 7 7 9 6 2 1 4 4 11 3 7 7 8 11 10 11 6 6 6 4 6 9 12 13 12 13 11 9 7 4 3 3 3 3 3 4 5 5 5
13 2 9 10 9 13 5 16 6 6 3 3 4 8 4 5 4 5 7 6 7 12 10 7 7 6 5 7 9 11 12 12 11 9 5 3 3 2 2 3 3 1 1 2
3 2 15 9 16 12 13 4 4 7 6 5 4 7 6 7 9 6 8 9 10 10 7 6 8 6 6 5 3 5 7 10 10 10 9 8 6 4 3 2 4 5 7 7
8 2 7 12 8 8 5 5 6 3 2 3 2 2 7 2 9 8 11 12 10 10 11 11 8 6 4 5 5 5 6 9 9 12 11 9 4 4 4 5 8 7 6 7
3 5 4 6 3 8 8 6 6 4 2 4 9 8 7 8 10 11 7 9 10 9 8 7 5 4 4 2 3 5 6 9 10 12 12 11 10 9 7 5 6 4 4 5
4 7 7 2 5 3 7 9 3 1 2 12 3 4 12 5 9 7 17 16 11 8 8 8 9 7 4 5 6 5 6 8 9 11 8 11 12 10 11 7 5 6 3 3
10 6 10 6 9 5 5 9 5 8 8 3 3 8 9 6 3 5 7 8 9 10 9 8 8 7 6 5 5 6 6 5 5 8 9 8 12 7 7 7 5 5 4 4
7 4 7 7 8 11 7 9 1 6 2 3 6 7 11 4 6 5 7 7 14 13 12 10 7 7 7 6 5 5 6 5 6 8 10 10 11 11 10 9 7 6 5 4
8 5 2 1 6 3 4 7 6 1 6 5 5 4 6 5 10 9 9 13 12 10 9 7 7 7 5 5 5 6 4 7 6 7 8 10 12 11 10 8 9 7 6 5
5 5 2 6 9 16 6 5 4 2 5 7 2 8 10 12 17 16 18 13 13 13 11 9 6 6 6 6 5 6 6 8 7 8 9 13 11 10 9 9 6 6 6 6
4 6 5 11 1 3 14 7 7 7 7 0 3 9 2 8 8 5 7 6 7 8 9 8 7 7 6 6 6 7 6 7 7 7 10 11 11 10 9 8 6 6 6 5
7 3 5 3 1 3 7 11 6 4 4 10 6 9 2 5 6 6 9 10 10 9 9 8 8 9 8 7 7 7 7 8 7 9 10 10 10 10 9 8 7 6 6 6
9 4 8 13 12 9 5 5 5 10 3 5 10 5 6 7 8 5 7 9 11 11 13 11 9 7 7 8 8 7 7 8 8 9 9 9 8 8 7 7 6 6 5 6
5 7 4 3 1 9 11 16 13 11 16 11 18 11 14 11 9 6 6 7 10 12 13 14 13 11 11 9 8 7 7 8 8 9 8 8 7 7 7 7 6 5 5 5
1 2 4 2 3 3 4 10 11 19 25 21 5 7 9 3 6 7 11 12 13 15 15 15 15 15 15 14 13 12 11 10 9 9 9 8 8 8 7 6 6 5 5 5
8 6 4 5 3 4 5 17 14 15 17 22 16 15 5 6 8 10 10 15 18 18 18 19 19 18 16 16 15 14 13 9 9 9 9 9 8 8 7 6 6 5 5 4
9 7 4 2 3 6 5 4 13 19 17 20 17 5 9 10 10 7 8 15 17 17 16 17 18 18 18 15 15 14 12 12 11 10 10 9 8 8 7 7 6 5 4 4
3 9 4 3 4 9 11 6 6 8 11 11 14 17 6 4 4 6 11 15 18 18 18 20 18 15 16 18 17 15 13 13 12 12 11 10 9 9 7 7 6 4 4 2
3 6 12 3 5 13 1 12 8 7 19 10 9 12 9 7 4 14 11 12 17 15 14 15 16 15 16 17 18 18 16 15 15 14 12 10 9 8 8 7 6 3 2 3
4 3 12 9 5 10 9 2 8 9 12 1 7 11 11 9 13 3 1 7 9 9 9 9 16 19 18 17 18 18 17 18 15 11 10 9 8 8 6 6 3 4 3 4
9 8 6 3 8 17 6 2 16 4 4 3 4 3 4 7 8 6 5 5 5 8 9 15 16 15 15 18 19 19 20 15 12 13 11 9 8 6 5 6 4 4 4 4
3 7 9 13 10 0 3 1 2 2 3 2 3 2 1 3 4 6 5 6 4 4 4 6 11 11 12 16 17 18 16 15 15 13 11 10 8 6 6 6 6 4 4 4
3 2 3 4 2 3 4 1 1 2 3 2 3 3 2 2 5 5 4 4 1 2 2 2 7 9 11 12 13 13 13 15 15 14 12 9 9 8 6 4 5 5 5 4
2 5 5 3 2 4 2 2 0 2 2 3 4 3 4 2 2 3 2 1 2 2 3 4 6 6 7 6 7 11 14 16 14 12 10 9 7 8 6 5 5 5 4 5
4 3 3 3 3 3 2 2 2 1 2 3 2 2 3 3 4 2 3 0 3 4 2 4 5 7 7 7 8 10 12 14 15 12 9 8 8 6 6 5 4 8 9 12
Wind_Direction
174 172 200 193 199 299 198 209 139 247 196 137 211 237 237 216 223 206 212 214 218 219 220 228 218 199 184 200 193 194 187 187 163 152 162 179 171 178 182 192 204 203 205 207
160 217 191 213 189 191 229 191 203 75 155 145 191 242 238 187 223 210 200 210 214 200 199 202 206 186 180 190 194 193 195 182 181 181 170 152 165 172 184 192 206 213 214 210
176 277 172 183 192 207 221 208 186 157 145 76 129 293 200 231 231 205 231 223 205 197 189 188 184 194 158 181 187 187 189 185 184 176 148 91 82 68 163 198 212 313 328 31
300 205 177 181 208 192 226 194 138 131 131 198 159 262 241 211 229 218 222 215 210 194 177 183 186 189 180 187 199 182 180 180 181 168 174 163 171 158 193 82 71 60 52 57
187 206 179 196 189 172 213 139 157 155 137 130 215 139 262 102 237 237 231 222 220 198 182 189 191 200 186 161 195 208 191 182 178 181 177 174 168 121 97 100 99 79 58 53
264 317 230 185 126 179 135 88 56 53 87 259 211 176 250 189 201 222 226 218 208 196 179 165 172 193 194 181 197 218 199 196 181 178 174 164 141 134 122 113 107 89 75 59
142 273 301 216 124 65 164 140 152 196 214 235 350 186 233 226 226 217 211 213 189 178 178 172 173 193 206 195 187 189 190 188 185 177 152 150 139 142 134 132 132 126 112 75
163 205 184 178 211 172 199 189 165 182 206 212 61 234 248 224 246 255 244 207 160 181 188 186 178 180 186 197 190 165 163 151 144 139 124 126 120 127 107 119 115 102 100 93
142 259 124 181 153 177 182 215 214 102 14 82 209 279 301 234 258 245 234 170 198 191 182 180 169 175 175 175 187 170 136 122 119 129 124 121 118 112 118 111 110 109 109 103
187 124 152 128 79 360 165 156 213 207 154 223 259 273 235 252 241 218 215 213 199 183 171 167 165 171 170 157 140 117 113 117 111 107 119 119 113 112 113 115 114 109 105 103
162 108 103 131 194 182 200 201 211 209 157 201 223 258 211 209 218 212 215 199 182 174 166 165 168 164 151 137 140 126 116 112 103 107 121 115 111 112 108 110 109 114 110 104
210 105 128 202 163 132 203 214 184 197 220 208 158 259 214 252 278 230 195 157 154 161 164 155 156 154 151 153 145 138 127 120 120 123 116 113 117 117 111 108 112 114 109 97
181 160 100 82 118 209 199 196 195 108 64 210 186 241 316 283 292 247 192 166 166 158 150 153 160 176 168 162 152 146 143 134 123 122 124 123 127 123 122 122 121 117 114 100
113 151 167 197 212 126 190 191 200 215 188 209 240 253 277 261 257 228 194 179 171 169 175 177 176 169 165 171 165 155 141 137 132 134 132 132 130 123 119 116 114 111 115 112
146 182 178 45 78 181 198 205 186 192 222 209 249 219 237 238 232 206 182 158 166 183 186 185 181 178 179 173 159 155 153 147 145 139 134 136 125 116 119 120 123 120 112 113
171 194 123 21 31 116 224 214 215 214 225 233 220 275 232 256 122 174 190 178 191 200 195 188 185 183 185 181 176 168 166 162 153 149 143 139 133 129 126 128 133 125 125 128
159 119 81 257 5 74 305 215 199 214 212 225 233 234 177 213 223 212 184 190 200 202 196 193 191 188 188 187 177 173 169 155 155 148 146 144 142 143 141 138 136 139 142 131
150 107 90 173 46 206 265 233 200 207 220 223 239 232 195 208 218 211 191 197 210 206 199 197 195 193 189 181 174 166 161 163 161 156 156 153 154 148 147 146 150 145 140 149
3 151 111 169 204 291 287 205 148 170 258 211 218 238 205 210 90 268 206 207 212 202 202 203 198 189 177 177 171 161 162 165 165 168 167 165 161 156 152 155 156 149 146 152
36 169 175 158 193 221 303 177 166 118 267 209 196 214 188 136 184 245 202 208 219 210 204 193 183 176 175 177 165 164 171 170 177 176 172 163 156 153 158 155 155 137 161 150
89 84 191 195 233 278 242 189 138 165 258 313 197 195 167 186 216 304 195 219 216 206 186 161 172 182 181 167 165 174 172 185 177 153 143 143 145 153 149 140 125 143 136 126
149 143 183 114 213 257 151 54 175 250 31 44 43 81 198 271 326 334 350 318 225 189 164 168 173 179 170 166 170 179 187 166 145 143 144 145 143 144 143 142 134 133 136 139
197 184 174 185 208 174 201 53 54 49 82 59 108 64 28 271 291 298 311 323 324 224 174 172 173 159 166 175 182 180 175 150 146 147 148 143 140 140 151 155 154 153 163 162
255 167 173 92 214 160 195 337 60 43 91 48 41 47 41 26 338 296 317 294 190 92 101 85 131 161 169 179 185 181 154 147 147 146 146 147 154 154 161 165 169 164 177 175
202 127 166 268 112 99 40 244 85 88 57 55 34 37 26 0 335 284 292 298 287 123 112 120 152 160 162 152 151 145 152 149 145 143 147 153 154 165 169 186 181 192 195 179
178 188 180 210 177 123 146 120 97 152 58 72 69 45 31 9 329 346 316 218 171 164 147 131 138 142 149 139 139 142 149 152 145 146 157 166 165 169 173 172 181 224 212 209